BEIDOU-2 IGSO-4

Last updated on Tue Oct 15 2024 00:02:39 GMT+0000 (Coordinated Universal Time)

1 37763U 11038A 24287.67630279 -.00000051 00000+0 00000+0 0 9997 2 37763 54.5600 171.1347 0129128 228.8631 321.7939 1.00282943 48516
UTC large
Height (km)
Speed (km/s)
/
Latitude / Longitude
Inclination (degrees)
Orbital Period (minutes)
Azimuth
Elevation
Range (km)
Doppler Factor

Next 0 passes for location: London (51.5072 / 0.1276)

Sorry there are no passes over London.